PGT685B LTFJ-EDDH

Flight info

Callsign PGT685B
Flight time N/A
Altitude 36000
Route MAKOL N600 RORKI DCT LUGEB DCT IDARU DCT DENAK DCT MOBRA DCT ELROM DCT NARKA DCT LITKU DCT SLC DCT VALPI DCT TIBLA DCT OMIFU DCT ODLIV DCT HDO DCT SOGMA M748 RARUP RARUP6A
Aircraft A320/M-SDFGHIJ1LORVWY/LB1

Departure

Time 2026-04-29 17:42
Airport Istanbul Sabiha Gökçen International Airport (LTFJ)

Arrival

Time N/A
Airport Hamburg Helmut Schmidt Airport (EDDH)
Time Latitude Longitude Altitude Speed Heading
2026-04-29 16:59 40.90576 29.31541 321 ft 0 kts 334°
2026-04-29 17:31 40.90565 29.31548 298 ft 2 kts 334°
2026-04-29 17:31 40.90549 29.31558 321 ft 2 kts 334°
2026-04-29 17:32 40.90534 29.31570 319 ft 3 kts 305°
2026-04-29 17:32 40.90526 29.31591 321 ft 3 kts 270°
2026-04-29 17:32 40.90528 29.31608 321 ft 1 kts 266°
2026-04-29 17:32 40.90528 29.31631 321 ft 3 kts 258°
2026-04-29 17:33 40.90531 29.31644 320 ft 0 kts 245°
2026-04-29 17:34 40.90527 29.31632 321 ft 1 kts 245°
2026-04-29 17:35 40.90523 29.31621 321 ft 4 kts 242°
2026-04-29 17:35 40.90488 29.31542 321 ft 8 kts 241°
2026-04-29 17:35 40.90467 29.31485 321 ft 6 kts 244°
2026-04-29 17:36 40.90450 29.31441 320 ft 4 kts 237°
2026-04-29 17:36 40.90417 29.31433 321 ft 7 kts 172°
2026-04-29 17:36 40.90369 29.31464 321 ft 7 kts 152°
2026-04-29 17:36 40.90328 29.31492 321 ft 6 kts 152°
2026-04-29 17:37 40.90285 29.31498 321 ft 9 kts 205°
2026-04-29 17:37 40.90247 29.31414 321 ft 13 kts 244°
2026-04-29 17:37 40.90200 29.31287 321 ft 17 kts 244°
2026-04-29 17:37 40.90140 29.31124 319 ft 22 kts 244°
2026-04-29 17:38 40.90067 29.30924 321 ft 26 kts 244°
2026-04-29 17:38 40.89982 29.30691 319 ft 29 kts 245°
2026-04-29 17:38 40.89895 29.30450 320 ft 29 kts 243°
2026-04-29 17:38 40.89807 29.30211 319 ft 30 kts 243°
2026-04-29 17:39 40.89717 29.29970 321 ft 28 kts 244°
2026-04-29 17:39 40.89659 29.29810 320 ft 12 kts 244°
2026-04-29 17:39 40.89625 29.29718 321 ft 10 kts 244°
2026-04-29 17:39 40.89593 29.29632 321 ft 13 kts 244°
2026-04-29 17:40 40.89534 29.29471 321 ft 25 kts 244°
2026-04-29 17:40 40.89472 29.29305 319 ft 11 kts 242°
2026-04-29 17:40 40.89423 29.29250 320 ft 9 kts 197°
2026-04-29 17:40 40.89371 29.29266 320 ft 8 kts 152°
2026-04-29 17:41 40.89328 29.29295 320 ft 6 kts 153°
2026-04-29 17:41 40.89300 29.29314 322 ft 4 kts 153°
2026-04-29 17:41 40.89279 29.29335 322 ft 3 kts 117°
2026-04-29 17:41 40.89289 29.29380 320 ft 14 kts 63°
2026-04-29 17:42 40.89385 29.29637 322 ft 57 kts 64°
2026-04-29 17:42 40.89654 29.30370 322 ft 117 kts 64°
2026-04-29 17:42 40.90073 29.31531 412 ft 154 kts 62°
2026-04-29 17:42 40.90523 29.32785 1106 ft 152 kts 64°
2026-04-29 17:43 40.90996 29.34048 1724 ft 158 kts 65°
2026-04-29 17:43 40.91515 29.35442 1981 ft 181 kts 65°
2026-04-29 17:43 40.92101 29.37008 2199 ft 206 kts 65°
2026-04-29 17:43 40.92766 29.38838 2530 ft 230 kts 65°
2026-04-29 17:44 40.93478 29.40796 3172 ft 240 kts 64°
2026-04-29 17:44 40.94209 29.42769 4000 ft 243 kts 63°
2026-04-29 17:44 40.94963 29.44822 4681 ft 255 kts 64°
2026-04-29 17:44 40.95747 29.46986 5335 ft 266 kts 63°
2026-04-29 17:45 40.96560 29.49204 6141 ft 269 kts 63°
2026-04-29 17:45 40.97389 29.51436 6971 ft 271 kts 62°
2026-04-29 17:45 40.98233 29.53723 7590 ft 281 kts 62°
2026-04-29 17:45 40.99097 29.56074 8348 ft 286 kts 61°
2026-04-29 17:46 41.00156 29.58308 9063 ft 289 kts 46°
2026-04-29 17:46 41.01713 29.59978 9812 ft 288 kts 25°
2026-04-29 17:46 41.03594 29.60827 10523 ft 287 kts
2026-04-29 17:46 41.05589 29.60766 11036 ft 295 kts 349°
2026-04-29 17:47 41.07669 29.60196 11224 ft 317 kts 343°
2026-04-29 17:47 41.09851 29.59352 11509 ft 333 kts 340°
2026-04-29 17:47 41.12078 29.58398 12101 ft 339 kts 340°
2026-04-29 17:47 41.14306 29.57442 12748 ft 343 kts 340°
2026-04-29 17:48 41.16596 29.56491 13412 ft 347 kts 340°
2026-04-29 17:48 41.18951 29.55549 14071 ft 351 kts 340°
2026-04-29 17:48 41.21275 29.54651 14663 ft 354 kts 341°
2026-04-29 17:48 41.23652 29.53756 15270 ft 356 kts 341°
2026-04-29 17:49 41.26069 29.52954 15868 ft 360 kts 344°
2026-04-29 17:49 41.28530 29.52249 16455 ft 363 kts 345°
2026-04-29 17:49 41.31021 29.51589 17038 ft 366 kts 345°
2026-04-29 17:49 41.33534 29.50933 17617 ft 369 kts 345°
2026-04-29 17:50 41.36065 29.50259 18183 ft 372 kts 345°
2026-04-29 17:50 41.38594 29.49501 18711 ft 373 kts 340°
2026-04-29 17:50 41.41030 29.48325 19185 ft 373 kts 335°
2026-04-29 17:50 41.43459 29.47081 19679 ft 375 kts 335°
2026-04-29 17:51 41.45907 29.45823 20158 ft 377 kts 335°
2026-04-29 17:51 41.48364 29.44559 20658 ft 379 kts 335°
2026-04-29 17:51 41.50831 29.43292 21150 ft 381 kts 335°
2026-04-29 17:51 41.53315 29.42021 21622 ft 383 kts 335°
2026-04-29 17:52 41.55810 29.40741 22082 ft 385 kts 335°
2026-04-29 17:52 41.57470 29.39890 22386 ft 387 kts 335°
2026-04-29 17:52 41.60844 29.38159 23002 ft 389 kts 335°
2026-04-29 17:52 41.63380 29.36855 23453 ft 391 kts 335°
2026-04-29 17:53 41.65933 29.35557 23874 ft 394 kts 336°
2026-04-29 17:53 41.68500 29.34383 24245 ft 396 kts 338°
2026-04-29 17:53 41.71142 29.33284 24615 ft 399 kts 339°
2026-04-29 17:53 41.73904 29.32190 24996 ft 401 kts 339°